Theta_e
352 351 348 345 344 345 345 343 341 342 343 342 342 343 342 341 345 350 356 350 340 339 341 339 340 339 339 339 339 339 339 338 338 338 337 337 336 336 335 334 333 333 332 331 329 329 328 328 329 330 330 330 329 329 329 328 328 328 328 328 328 328 328 328 329 330 328 324 323 322 322 322 323 324
355 354 352 349 345 344 344 344 341 340 342 343 342 343 342 341 341 342 349 350 340 338 341 339 339 340 338 339 339 339 339 339 339 338 337 337 337 336 336 336 335 335 335 335 334 331 330 329 330 332 333 332 332 331 330 329 328 328 328 328 328 328 328 328 329 330 326 323 322 321 321 322 323 323
357 356 355 353 350 347 344 343 342 341 342 343 342 342 342 342 341 338 340 344 341 338 339 338 338 339 339 339 340 339 339 339 339 338 337 338 337 337 336 336 336 336 336 336 336 335 333 331 332 333 334 334 334 334 333 331 330 329 328 328 327 327 328 328 330 329 325 322 322 320 321 321 322 324
358 357 356 355 354 352 350 345 343 341 341 342 341 342 343 343 344 340 337 339 339 337 338 339 338 338 339 340 339 339 340 340 339 339 338 338 338 337 337 337 337 337 336 337 337 336 335 333 333 334 335 335 335 335 334 333 332 331 331 330 330 329 328 328 330 329 324 322 320 320 320 320 322 324
358 358 357 357 356 355 354 351 347 344 342 341 341 342 343 345 345 342 339 337 337 337 338 339 339 339 339 340 340 340 341 340 340 340 338 339 338 338 337 336 337 337 337 337 337 337 337 335 334 335 336 336 336 336 336 335 334 333 332 331 331 329 328 329 330 328 323 321 320 320 320 320 321 323
359 358 358 358 357 356 356 354 352 350 346 343 342 341 342 343 345 345 342 338 337 337 338 339 339 339 339 340 340 340 341 341 341 340 340 339 338 338 338 337 337 337 338 338 338 337 337 336 336 336 337 337 337 337 336 336 334 332 331 330 329 329 329 330 330 326 321 320 320 320 319 319 320 320
358 359 358 358 357 357 357 356 354 353 351 348 346 343 341 342 343 344 344 342 339 339 339 340 340 340 340 340 340 339 340 340 340 340 339 340 339 339 338 337 337 337 337 338 338 338 337 337 337 337 338 338 338 338 337 335 333 331 330 330 330 330 330 330 328 324 321 319 320 320 319 318 318 318
357 358 358 358 358 357 356 356 355 354 353 352 350 347 346 344 343 344 344 343 342 341 340 340 341 341 341 341 341 340 339 339 340 340 339 339 339 339 338 338 337 337 337 338 338 338 338 337 337 337 338 338 338 338 336 335 333 332 332 332 331 331 330 328 326 323 320 320 321 321 319 318 318 319
357 357 357 356 356 357 356 355 355 355 354 353 351 350 349 348 347 346 344 343 343 342 341 341 341 341 341 341 341 341 340 339 339 339 340 340 339 339 338 338 338 337 337 337 338 338 338 338 338 338 338 338 338 337 336 335 334 334 334 334 332 331 330 327 325 322 320 321 322 322 320 318 319 321
357 357 357 356 356 356 356 355 354 354 354 353 352 351 350 350 349 348 347 346 344 342 342 341 341 341 341 341 341 341 341 341 340 339 339 340 340 339 339 338 338 337 337 338 338 339 339 339 338 338 338 338 338 337 336 337 336 336 335 334 333 333 330 327 325 321 321 323 324 323 322 319 319 322
357 357 357 357 356 357 356 355 354 354 354 353 352 352 351 350 350 349 348 347 346 344 343 342 342 342 341 341 341 341 341 341 341 340 340 340 340 339 339 339 338 338 338 337 338 339 339 338 338 338 338 338 337 337 337 337 338 337 336 335 334 334 332 328 324 321 321 324 324 324 324 322 321 322
357 357 357 357 357 357 356 356 355 355 354 353 352 351 351 351 350 349 348 347 346 345 344 343 343 342 342 342 342 342 341 340 341 341 340 340 339 339 340 339 338 338 338 338 338 339 339 339 338 338 338 338 338 338 337 338 339 338 337 335 335 334 332 328 324 321 322 325 325 325 325 324 324 323
358 358 357 358 357 357 357 357 356 356 355 354 353 352 351 351 350 349 348 347 346 345 344 343 344 343 342 342 342 342 341 341 341 341 340 340 340 340 340 340 339 339 339 339 339 339 339 339 338 338 338 338 339 338 337 337 338 339 338 336 335 335 333 328 324 322 323 326 327 326 325 324 323 321
358 358 358 358 357 358 357 357 357 357 357 356 355 354 353 351 351 350 348 347 346 346 344 344 344 343 342 343 343 342 342 342 342 341 340 340 340 339 339 339 339 339 339 340 340 340 339 338 338 338 338 338 339 338 337 337 337 338 337 337 335 335 333 328 326 325 326 327 327 327 326 323 319 317
358 358 358 358 358 358 358 358 358 358 357 357 357 356 355 354 352 351 349 348 347 346 345 344 344 343 343 343 343 343 343 342 341 341 341 340 339 339 339 338 338 338 339 339 340 340 339 338 339 339 338 338 339 339 337 336 337 337 337 336 336 336 334 331 329 329 329 329 328 327 324 320 317 316
359 359 359 359 359 359 358 358 358 357 358 358 358 358 358 357 355 354 353 351 349 348 346 345 345 345 344 344 344 344 344 343 342 341 340 340 340 339 338 338 338 338 338 338 339 340 339 339 339 339 339 339 338 338 337 336 336 337 337 338 336 336 336 333 331 331 331 330 330 327 322 317 317 316
359 359 359 359 359 359 358 358 359 358 358 358 358 358 358 358 357 357 356 354 353 351 349 347 347 346 346 346 346 346 345 344 343 342 340 340 340 339 339 339 339 339 338 338 339 339 338 338 339 339 339 339 339 339 338 338 338 337 338 338 337 336 337 335 333 332 332 331 329 324 318 317 317 314
359 359 359 359 359 359 359 358 359 358 358 358 358 358 358 358 357 357 357 356 356 354 352 350 349 349 349 348 348 348 347 345 344 343 342 342 341 340 340 340 339 339 339 338 339 339 338 338 339 339 339 339 339 338 338 338 339 338 338 338 337 336 337 336 335 333 333 332 328 321 318 318 316 312
359 359 359 359 359 359 359 359 359 358 359 359 358 358 357 357 357 357 357 357 356 356 355 354 353 353 351 351 350 350 349 347 346 345 344 344 343 342 341 340 340 339 339 339 339 339 339 339 339 339 338 339 339 338 337 337 338 338 338 338 337 337 337 336 336 334 333 332 326 320 319 319 315 311
359 359 360 360 359 359 360 359 359 360 360 359 359 358 358 358 357 357 357 357 357 357 357 356 356 355 355 354 353 352 351 349 348 347 345 344 343 341 340 340 340 339 339 339 339 339 339 339 339 339 339 339 339 339 338 337 337 338 338 338 338 338 338 337 336 334 333 330 325 321 320 319 315 311
359 359 359 360 360 360 360 360 360 360 360 360 359 359 358 358 357 357 357 357 357 357 357 356 357 356 356 356 355 355 353 351 349 346 344 344 342 341 340 341 340 340 339 340 339 339 339 339 339 339 338 338 339 339 338 338 337 337 338 338 339 338 338 338 336 335 333 330 325 323 321 318 315 312
358 359 360 360 360 360 360 360 360 360 360 360 360 359 358 358 358 357 358 357 357 357 356 356 356 356 355 356 355 355 355 354 351 347 344 345 345 342 341 341 341 341 340 340 340 339 339 340 339 339 338 338 338 339 339 339 338 338 338 338 339 339 339 338 337 335 333 330 326 324 321 318 315 313
358 358 359 359 360 360 360 360 360 360 360 360 360 360 358 358 358 358 358 358 358 357 356 356 355 355 355 356 355 355 355 355 353 348 346 346 345 343 343 342 342 342 342 341 341 339 339 339 339 338 339 339 339 339 339 339 339 338 338 338 339 340 340 339 337 335 334 331 327 324 322 318 315 314
358 358 358 359 359 360 360 360 361 361 360 360 360 359 359 358 359 359 359 358 359 358 357 357 357 356 356 356 354 354 354 354 353 350 347 346 345 343 343 343 342 343 343 343 341 340 340 340 339 339 339 339 339 338 339 340 340 339 339 339 339 340 340 338 337 335 334 332 328 325 322 319 316 315
358 357 358 359 359 359 360 360 360 360 361 360 360 359 359 360 360 360 359 358 358 357 357 358 357 357 357 357 355 355 353 352 352 350 349 348 346 345 344 343 343 343 344 344 342 341 340 340 339 339 339 339 339 338 338 339 339 339 340 339 339 340 340 339 336 336 335 333 330 327 324 320 316 315
358 358 359 359 359 360 360 360 361 361 361 361 361 361 362 361 361 360 359 358 358 357 356 356 355 355 356 356 355 355 354 353 352 351 349 348 348 347 345 345 344 344 344 345 344 342 341 341 340 339 338 338 339 338 336 337 338 339 340 339 339 340 340 339 337 336 336 334 331 330 326 321 317 315
359 359 360 360 360 361 361 361 361 362 362 362 362 362 361 360 360 358 358 357 355 355 353 352 352 352 353 353 353 353 353 354 353 352 351 350 349 348 347 346 345 345 346 346 345 343 342 341 341 340 339 338 339 337 335 335 336 336 337 339 340 340 340 339 338 336 336 335 332 331 328 322 317 316
360 360 361 361 362 362 362 362 362 362 362 361 362 360 359 359 357 355 352 350 348 347 346 345 346 347 348 349 349 349 350 350 349 349 349 349 348 348 347 347 346 345 345 346 345 345 343 342 341 340 340 339 338 337 336 335 334 335 337 337 337 338 338 338 338 337 336 334 332 331 327 322 318 317
360 361 361 361 362 361 362 361 361 362 361 360 359 357 355 352 348 344 341 339 339 340 340 341 341 342 342 342 343 343 344 344 345 345 344 345 345 346 346 346 346 346 345 345 345 345 344 343 342 341 340 340 339 337 336 334 333 334 336 335 334 335 337 338 338 336 335 332 331 329 325 321 318 317
359 359 359 359 360 360 360 360 359 358 355 352 348 345 342 339 336 335 334 333 334 335 336 336 337 337 337 337 337 337 338 338 338 339 341 341 342 342 343 344 344 345 345 345 344 344 344 343 343 342 340 340 339 338 337 336 332 332 334 335 333 331 333 336 336 334 331 329 328 327 323 320 318 316
357 357 357 357 357 356 354 351 348 344 341 338 336 334 333 332 332 332 332 332 332 333 333 333 333 333 333 333 333 334 334 334 335 335 337 338 339 340 340 341 342 342 343 344 344 344 344 344 343 342 341 340 339 338 338 336 333 330 331 334 332 330 331 332 332 330 328 326 325 324 321 319 319 317
356 355 353 350 346 343 340 337 335 334 332 332 331 331 330 330 331 331 332 332 332 332 332 332 332 332 332 332 333 333 333 334 334 334 335 336 336 337 338 339 340 341 341 342 343 343 344 344 344 343 342 341 340 339 338 336 334 330 330 331 331 330 331 330 328 328 327 324 322 321 321 319 318 315
350 345 341 338 335 333 333 333 332 332 331 330 330 329 329 329 330 331 332 332 332 332 332 332 332 332 332 332 333 333 333 333 334 333 334 334 334 335 335 336 337 339 340 341 342 343 343 343 343 343 343 342 340 340 338 335 332 330 329 328 327 326 327 328 327 326 324 322 321 320 319 316 315 313
338 334 334 333 333 333 333 333 332 331 331 330 330 330 329 329 330 331 332 332 331 331 331 332 332 332 332 332 332 332 332 332 332 333 333 333 334 334 335 335 336 337 338 339 341 341 342 343 342 342 342 341 341 340 338 335 331 328 327 326 325 324 325 326 325 323 321 321 320 317 314 313 312 311
333 333 334 334 333 333 332 331 331 331 331 331 330 330 330 330 331 331 331 331 331 331 331 331 331 332 332 332 332 332 332 332 332 332 332 332 333 333 334 335 336 337 337 338 339 340 341 342 341 338 335 333 333 333 333 333 330 326 324 324 323 323 323 323 323 321 320 319 317 314 312 312 311 311
334 333 333 332 331 331 330 330 330 330 330 330 329 330 330 331 330 330 330 330 331 331 331 331 331 331 331 331 331 331 331 331 330 331 331 331 332 333 334 335 336 336 337 337 338 339 340 341 340 336 331 331 332 330 328 327 327 326 323 322 322 322 322 321 320 319 318 316 316 315 313 311 311 311
333 332 332 331 330 329 330 330 329 329 329 329 329 329 329 330 330 330 331 331 331 331 331 330 330 330 330 330 330 330 330 330 329 329 330 330 330 332 333 334 335 336 336 337 337 338 339 340 338 335 332 332 332 328 324 322 323 324 323 321 320 321 321 319 318 317 316 317 316 316 313 312 311 312
332 331 330 330 329 329 329 329 329 329 329 329 329 329 329 329 329 330 331 332 331 331 330 330 329 329 329 329 330 330 329 329 329 329 328 328 329 331 333 335 335 336 336 337 337 336 337 338 336 334 332 332 330 325 323 322 321 321 322 322 321 320 319 318 317 317 317 317 316 315 313 311 311 312
332 331 331 331 331 330 329 329 329 329 329 329 329 329 329 329 330 331 332 332 332 331 330 329 329 329 330 330 330 330 329 329 328 328 328 327 327 329 331 333 333 333 332 332 332 332 333 334 333 331 329 328 326 324 322 322 321 321 322 324 323 321 319 319 318 318 318 317 315 313 313 312 312 313
331 331 331 331 332 331 331 330 329 329 329 329 329 329 329 330 332 332 332 332 331 331 331 330 330 330 330 330 330 329 329 329 328 328 328 328 326 327 327 327 327 327 326 325 325 326 327 329 330 328 326 325 325 325 324 322 321 321 321 322 321 320 319 318 318 318 318 315 313 313 314 314 313 312
331 331 331 331 332 332 332 331 330 330 330 330 331 331 332 332 332 333 333 332 331 332 332 332 331 330 329 330 329 329 329 329 328 327 327 327 327 327 326 326 325 325 324 324 324 323 324 326 328 328 326 325 325 326 324 322 321 320 319 319 318 317 315 313 313 314 314 313 312 314 314 313 312 311
331 331 331 331 331 332 332 331 331 331 331 332 332 333 333 333 333 333 333 332 332 332 332 332 331 330 330 330 330 329 329 328 327 327 327 326 326 326 326 325 325 324 324 324 323 322 323 324 325 325 325 324 324 323 322 321 320 319 318 319 319 318 316 315 314 313 312 312 313 314 314 313 312 312
332 331 331 331 332 332 332 331 331 331 332 332 332 332 332 333 333 333 332 332 332 332 332 331 331 330 330 331 331 329 329 328 328 327 326 326 326 325 325 325 324 324 323 323 322 323 324 324 325 325 324 323 322 321 320 320 319 319 319 320 320 320 319 318 318 317 315 313 313 313 312 312 313 312
332 332 331 331 332 332 331 330 331 331 331 331 331 331 332 332 332 332 332 332 332 331 331 331 331 330 330 331 331 330 329 329 328 327 326 326 326 325 325 325 325 324 324 323 322 323 323 324 325 325 323 321 320 320 319 319 319 319 320 320 320 320 320 319 319 318 317 315 314 313 312 312 312 312
331 331 332 332 331 331 330 329 330 330 330 329 329 330 331 331 331 332 332 331 332 331 330 331 331 330 330 330 331 331 330 329 329 328 327 327 326 326 326 326 325 324 324 324 323 322 322 322 322 322 321 320 320 319 319 318 318 318 319 319 319 319 319 319 319 318 317 316 315 315 314 314 313 312
Wind_Speed
21 21 20 21 22 21 19 19 19 20 20 18 17 16 15 12 6 2 3 5 8 14 18 19 19 21 25 26 26 26 25 25 24 23 23 23 22 21 20 20 20 20 20 20 20 20 20 19 19 18 18 19 19 19 19 19 19 19 18 18 18 18 18 18 17 16 15 14 14 13 13 13 13 14
22 22 22 21 22 22 22 21 20 20 21 20 20 19 18 17 13 8 4 5 9 12 16 19 19 19 21 23 25 27 27 27 27 26 26 26 25 24 23 23 22 22 22 22 22 22 22 21 21 20 20 20 20 20 21 21 21 21 21 21 21 20 20 19 17 17 16 15 14 13 12 12 12 13
23 24 24 23 23 23 23 23 22 22 22 22 22 21 20 20 19 17 10 5 10 14 14 16 18 19 20 21 22 25 26 27 28 29 29 29 28 27 26 25 25 25 25 24 24 24 23 23 23 22 21 21 21 22 22 22 23 23 23 23 23 22 21 19 18 17 16 15 14 13 12 11 11 12
26 26 26 26 25 24 24 25 25 25 25 24 24 23 22 21 20 20 16 10 13 19 18 17 18 17 18 21 22 23 25 25 27 30 31 31 31 30 30 28 27 27 27 26 26 26 25 25 24 24 23 23 23 23 23 23 23 23 24 24 23 22 21 19 18 18 16 15 14 13 11 11 11 11
28 28 28 28 27 26 26 27 26 27 27 27 27 26 25 24 21 20 19 16 17 23 24 22 21 19 17 19 21 23 24 25 26 29 31 32 33 33 33 32 30 29 28 28 28 28 27 26 25 25 25 25 25 24 24 24 23 23 23 22 22 21 20 19 19 18 16 14 14 12 11 11 10 10
30 30 31 31 30 28 29 29 28 28 28 27 29 29 28 27 25 23 22 21 19 22 25 24 24 22 20 21 22 22 24 25 26 28 30 31 33 34 35 34 33 31 29 29 29 29 28 28 27 26 26 26 26 26 25 24 23 22 22 21 20 20 19 19 19 17 15 14 13 12 11 10 9 8
32 32 32 33 32 31 31 31 31 30 29 28 29 30 30 30 30 27 25 24 22 23 26 26 25 24 24 25 25 25 25 25 25 27 29 30 32 34 35 36 36 34 31 30 29 29 29 29 28 27 27 27 26 26 25 25 23 22 21 20 20 20 19 19 19 17 15 14 13 11 10 10 8 7
33 32 33 35 34 33 32 33 33 32 31 31 30 31 31 31 32 31 28 28 27 25 26 27 27 26 25 26 25 25 26 26 27 28 28 29 31 34 35 36 37 36 34 32 30 30 29 30 30 29 29 28 27 26 26 25 24 23 21 20 20 19 19 19 18 17 15 14 12 11 10 9 8 7
33 33 35 36 35 32 32 34 35 34 33 32 32 33 33 33 32 32 30 30 30 29 28 30 30 28 26 27 27 26 25 26 27 29 30 30 31 33 35 36 38 38 37 35 33 32 32 31 31 31 30 29 28 27 26 26 25 24 22 21 20 19 19 19 18 17 15 13 12 11 10 10 9 9
35 35 36 37 35 33 33 35 36 35 33 32 32 33 34 35 33 31 31 31 30 31 31 32 32 31 29 28 28 29 28 26 27 29 30 32 32 33 35 37 38 38 39 38 36 35 34 33 33 32 32 31 30 29 28 27 27 25 24 22 20 20 19 19 19 18 16 14 12 12 11 11 11 10
35 36 37 37 35 35 36 37 37 34 31 31 32 33 34 33 31 31 31 31 30 30 30 30 31 32 31 29 29 30 28 26 28 29 29 31 33 34 36 38 38 38 39 40 39 38 36 35 34 34 33 32 31 30 30 29 28 27 26 24 22 21 20 20 20 18 17 14 13 13 12 12 12 12
35 36 37 37 37 37 37 38 38 35 32 30 30 33 33 32 30 30 31 30 29 29 28 28 30 30 28 28 29 29 25 24 29 31 30 32 35 34 35 38 38 38 39 40 40 40 39 37 37 36 35 34 33 32 31 31 30 29 28 26 24 22 21 21 20 19 18 16 14 14 13 13 14 14
35 36 36 37 37 38 38 38 38 37 35 33 33 34 33 32 31 30 30 29 28 28 27 27 28 26 25 27 29 29 28 28 32 32 29 31 35 33 31 35 37 37 38 39 41 42 41 40 39 39 38 36 35 33 33 33 32 31 30 29 26 23 22 21 20 20 19 18 16 15 14 14 14 13
36 36 36 37 37 37 38 38 39 39 39 37 37 37 36 34 32 31 30 29 28 27 26 27 27 23 24 28 30 31 34 34 33 32 28 30 32 28 25 32 37 38 37 38 41 43 43 41 41 40 40 39 37 35 35 35 34 32 32 30 28 25 23 22 21 21 20 19 17 16 15 15 14 13
36 35 35 36 37 37 38 39 40 40 41 41 41 41 40 38 36 34 32 30 29 27 27 28 27 24 26 31 32 32 35 35 33 32 30 29 28 24 21 24 31 36 36 36 39 42 43 42 42 41 42 42 39 37 36 36 35 34 33 31 29 27 25 23 22 21 21 20 18 17 16 15 14 13
36 35 35 36 36 37 38 39 40 40 41 41 41 42 42 41 41 40 38 35 31 29 29 29 29 28 30 33 33 32 34 35 33 31 30 30 30 28 26 25 29 35 34 30 32 38 42 42 40 42 44 44 42 40 38 37 36 35 34 32 31 29 26 24 23 22 21 20 18 17 17 16 14 13
36 36 36 35 36 37 38 38 38 38 39 40 40 40 41 41 43 44 44 42 39 37 34 31 33 34 33 34 37 37 36 35 33 30 30 32 33 32 31 33 36 36 31 26 27 33 39 39 38 41 45 44 42 42 40 39 38 37 36 34 32 30 28 26 24 23 21 20 19 18 18 16 14 13
36 37 36 35 36 37 36 36 36 36 37 38 38 38 38 40 42 43 44 44 43 44 42 39 41 42 39 39 43 44 40 37 36 35 34 35 36 35 35 38 38 33 31 28 25 29 37 37 35 41 46 43 42 43 42 41 40 38 37 36 34 31 30 28 25 24 22 20 19 19 18 17 15 14
37 37 35 35 37 37 36 35 35 35 35 36 37 37 37 38 40 41 41 41 42 44 45 46 49 49 46 46 48 49 46 43 44 43 40 40 39 34 33 35 34 30 30 30 26 29 38 37 35 40 44 41 41 43 43 42 41 39 38 38 36 33 31 29 28 25 23 22 21 20 19 17 15 14
37 36 35 35 37 37 36 36 35 35 35 35 36 36 37 38 39 39 38 38 40 42 43 45 48 49 50 50 52 53 50 48 47 44 40 40 35 28 27 30 28 25 28 35 37 34 35 35 34 38 39 38 41 43 43 42 41 40 39 38 37 35 32 31 30 27 25 24 22 21 20 18 15 13
38 37 37 36 36 36 36 36 36 35 34 35 36 36 36 37 37 36 35 36 39 40 41 43 45 46 49 49 52 55 53 52 50 41 36 38 32 26 24 23 23 25 33 42 42 34 33 34 31 32 34 34 36 39 40 42 41 39 39 39 38 37 35 33 32 29 27 26 24 22 21 19 16 14
38 38 38 36 36 36 37 37 37 35 34 35 36 36 36 36 35 33 31 33 35 36 37 39 40 43 46 47 50 52 51 54 53 44 42 42 34 27 24 23 24 30 39 47 40 31 34 34 25 23 23 22 29 36 37 40 41 39 39 39 38 38 36 34 33 31 29 28 26 24 23 21 18 16
37 37 38 38 37 38 39 39 38 37 36 37 37 36 35 34 34 34 32 32 33 33 33 35 36 39 44 45 48 49 49 52 54 50 50 49 40 31 29 28 24 20 31 44 40 32 35 33 26 26 19 10 20 34 38 39 41 41 40 39 38 38 37 35 34 32 30 30 28 26 24 22 20 19
36 36 37 37 38 39 40 40 39 39 38 38 38 35 32 32 36 37 34 31 31 31 31 32 33 36 41 41 42 44 46 48 50 49 50 51 48 42 37 34 28 23 33 42 35 32 37 34 31 36 29 17 18 28 35 41 41 39 39 39 38 38 38 36 35 32 31 30 29 27 25 24 23 21
35 35 35 36 38 38 38 38 37 37 36 35 36 36 34 36 39 39 35 33 31 30 31 31 31 33 38 40 39 40 42 43 43 44 45 47 50 49 45 40 35 34 44 46 34 33 38 34 31 35 34 30 27 23 25 31 37 39 40 39 39 39 39 38 36 34 33 31 30 29 26 25 24 22
34 35 35 35 34 34 33 32 31 30 30 30 31 33 33 35 36 35 34 34 33 33 33 32 32 33 37 39 41 41 41 41 41 41 40 41 44 48 50 49 43 41 48 49 41 39 40 36 35 33 30 30 31 26 21 22 29 36 38 39 40 40 40 40 38 36 35 33 32 30 28 27 26 23
34 33 31 29 29 28 27 26 25 24 24 25 26 27 27 27 27 27 27 28 28 29 29 28 30 32 34 36 38 40 42 44 44 43 43 42 42 43 47 51 52 52 54 52 46 44 43 41 39 37 35 32 27 22 21 19 21 27 34 38 41 41 41 41 39 37 36 35 33 31 28 28 27 24
30 27 25 24 24 24 23 22 22 21 21 22 23 24 24 24 24 24 23 23 23 23 23 24 27 30 31 32 35 38 41 44 45 47 48 46 44 43 43 46 50 53 56 55 51 49 48 46 44 42 42 39 29 19 19 21 23 28 36 37 37 39 41 41 39 37 36 34 32 30 30 31 29 26
28 26 24 22 21 20 19 19 19 20 21 21 22 22 22 22 21 20 19 19 18 18 20 22 25 28 30 31 34 37 39 41 43 46 47 47 44 43 42 44 46 48 51 54 54 53 51 50 48 44 43 43 36 27 26 28 29 36 41 39 34 37 41 41 38 37 36 34 33 32 33 33 29 26
30 26 23 21 20 20 19 20 20 20 19 18 18 17 17 16 16 15 15 15 15 16 19 21 23 27 29 31 33 35 36 39 41 43 44 44 43 41 40 40 42 43 45 48 51 52 53 52 50 46 43 41 38 37 38 35 31 34 40 41 35 31 35 39 38 36 36 34 32 32 33 31 28 26
29 26 22 20 19 18 16 15 14 13 12 11 11 11 11 11 12 12 12 12 13 15 18 20 23 26 28 30 31 32 34 37 40 40 39 39 40 40 38 38 39 40 41 43 45 49 53 55 53 49 45 40 36 38 42 39 33 31 36 40 38 32 34 38 37 34 35 33 30 31 32 31 28 25
21 18 15 12 10 9 8 7 6 7 7 8 8 8 9 11 13 14 14 14 15 17 18 20 23 25 27 29 31 31 32 35 38 39 37 37 39 40 37 35 35 35 35 37 39 44 49 54 55 54 52 47 42 42 42 39 36 36 37 38 38 37 39 41 37 33 33 31 28 30 31 29 28 25
12 10 8 7 6 4 4 4 4 5 6 6 7 9 11 13 15 16 17 18 19 20 20 21 23 25 27 29 31 32 33 36 38 40 39 38 40 39 36 34 33 32 32 32 33 36 41 47 51 52 54 53 50 48 43 34 32 36 39 36 33 33 38 42 39 36 35 32 29 29 28 26 26 25
11 10 8 5 3 2 1 2 3 5 6 8 10 11 13 15 17 18 19 20 20 21 22 23 24 26 27 29 31 33 35 37 39 40 40 40 39 37 34 33 31 30 31 31 32 34 36 40 44 45 46 46 44 44 44 38 33 35 40 41 37 35 38 41 40 37 35 34 31 29 27 25 25 24
10 9 7 5 3 2 2 3 4 6 8 10 12 14 15 16 18 19 19 20 20 21 22 23 25 26 26 28 30 32 33 36 39 40 40 39 37 35 34 32 29 29 29 30 32 34 34 35 35 28 19 17 17 19 25 33 37 36 35 36 38 39 38 38 38 36 33 32 31 29 26 24 24 23
9 8 7 6 4 4 4 5 6 7 9 11 12 14 15 17 18 19 19 19 20 20 21 23 24 25 26 26 28 30 32 34 36 38 39 38 35 33 32 31 29 29 29 29 31 31 29 31 29 19 8 6 7 5 5 18 35 42 39 36 36 39 38 35 35 35 33 30 29 28 25 24 24 23
10 8 7 7 6 5 5 5 6 7 9 10 11 12 13 15 18 19 19 20 20 21 22 23 23 24 24 25 26 30 32 33 34 35 36 36 35 31 27 25 26 26 27 29 31 29 25 25 24 20 12 6 6 4 6 12 24 35 40 39 37 36 38 36 34 32 30 27 26 25 24 24 23 22
10 8 7 7 6 6 5 5 6 7 8 9 11 12 13 15 17 19 20 20 21 22 23 23 23 24 24 24 25 27 30 32 33 34 34 33 32 29 25 22 24 25 26 27 27 25 23 22 21 21 16 9 8 8 9 14 19 23 33 39 38 36 36 35 33 30 27 24 22 22 21 21 21 20
8 7 7 7 6 6 5 5 5 6 8 9 10 11 13 15 16 18 19 20 21 22 22 22 23 24 23 23 23 25 27 29 30 31 32 33 30 26 21 18 16 16 16 15 11 9 11 15 16 15 8 6 8 15 21 23 23 24 29 33 34 35 34 32 30 29 26 24 23 21 19 18 17 18
7 6 6 6 6 5 5 6 7 8 8 9 10 10 12 14 16 18 19 19 20 21 21 21 22 22 22 22 22 23 25 27 27 28 29 30 29 25 20 15 12 14 15 14 12 10 9 10 14 20 25 28 30 37 42 37 30 29 29 26 26 29 30 28 28 28 27 26 25 23 20 18 16 17
7 6 5 6 6 6 7 9 10 9 9 9 10 11 12 14 15 16 17 18 18 19 20 21 20 20 20 19 19 21 23 25 26 27 27 26 26 25 23 21 19 20 19 16 15 17 20 25 30 35 41 45 47 44 37 26 21 25 29 27 23 23 23 24 26 28 28 28 28 25 21 19 17 16
8 7 6 6 7 8 10 11 11 10 9 10 10 12 13 14 14 15 16 17 17 17 18 18 17 16 17 17 18 19 21 22 23 24 24 25 25 25 26 25 23 21 19 17 18 19 21 27 36 39 36 35 34 27 17 12 15 22 26 27 24 22 20 19 22 24 26 27 28 25 21 18 13 12
7 7 7 8 8 9 11 12 11 10 10 11 11 12 13 14 14 15 15 16 16 16 16 15 14 13 14 14 15 16 18 19 20 21 22 23 23 24 24 24 23 22 21 20 21 23 25 27 31 33 30 28 28 24 18 17 22 24 24 24 23 21 19 17 17 19 22 24 24 22 21 19 14 12
6 7 7 7 8 9 11 11 11 11 11 12 12 13 13 13 14 15 15 15 15 15 15 13 12 11 12 13 13 14 14 15 15 17 19 20 21 21 21 22 23 23 22 22 23 24 25 25 26 28 28 29 30 29 24 22 24 24 24 24 22 20 19 18 17 17 19 20 19 17 17 17 15 13
9 8 8 8 8 9 11 11 12 12 12 12 13 13 13 13 14 14 14 15 15 14 13 12 11 11 11 11 12 12 11 10 11 13 15 16 18 19 19 21 22 21 20 21 21 21 22 22 24 26 27 27 28 29 27 26 25 24 23 23 22 20 20 20 19 19 18 17 17 16 16 17 16 14
Wind_Direction
250 251 250 248 247 246 246 248 244 239 242 243 246 253 246 231 220 249 283 261 249 249 246 244 247 245 241 242 244 246 249 251 252 249 247 248 248 246 244 242 241 240 242 245 247 249 250 250 251 253 255 257 259 261 262 263 264 266 269 271 275 279 283 284 283 284 284 281 282 283 282 282 281 280
251 253 253 252 252 249 247 248 247 241 242 244 245 252 257 250 236 228 242 266 262 258 252 249 252 253 249 247 247 248 251 253 253 253 252 252 252 251 248 247 246 245 245 247 249 251 252 253 252 253 256 258 261 263 264 265 266 268 270 272 274 277 280 280 278 279 279 278 281 282 281 282 281 281
249 251 253 253 254 254 252 250 248 244 242 245 248 253 259 259 254 245 238 257 268 260 259 262 261 260 260 257 255 254 255 255 254 254 254 255 255 254 251 250 250 250 250 250 251 252 253 254 254 254 256 259 261 263 265 266 268 269 270 272 274 276 276 274 273 274 274 276 279 280 282 282 279 277
247 249 251 253 254 255 256 254 252 248 246 247 250 254 258 261 261 254 240 240 264 264 266 273 272 267 263 261 259 260 261 260 257 256 257 257 256 255 253 252 252 253 253 253 253 254 253 254 255 255 256 258 260 262 264 265 267 268 270 270 271 271 270 268 268 270 272 275 277 279 282 281 276 271
246 248 249 253 255 255 256 257 256 254 251 251 252 254 257 259 260 256 245 241 261 270 269 271 273 270 265 261 260 261 263 263 261 260 260 259 257 255 254 253 253 253 254 255 255 255 254 254 255 255 256 258 260 261 263 264 265 266 266 265 264 263 261 261 263 266 269 272 275 277 279 276 271 267
246 247 248 251 254 254 255 257 257 257 255 254 254 254 256 257 258 258 252 247 255 268 271 270 271 270 266 264 264 264 264 265 265 264 263 262 260 258 257 255 254 254 254 256 256 256 254 254 254 255 255 257 259 260 261 262 263 263 261 258 258 256 255 255 258 261 264 266 271 275 276 273 268 264
245 245 246 250 252 252 254 255 256 257 256 255 255 255 255 257 258 259 257 253 253 263 271 272 270 270 268 267 268 269 268 269 269 267 266 264 263 261 260 257 256 256 255 255 257 257 255 254 254 255 256 257 258 259 260 259 259 258 256 254 253 252 251 252 254 257 258 261 267 271 271 267 260 258
244 243 245 249 251 250 251 254 255 255 255 255 256 256 256 257 258 258 258 256 255 258 266 271 271 271 271 271 271 270 269 269 268 268 268 266 264 263 261 259 258 258 257 257 257 257 256 255 255 255 256 258 258 258 258 255 254 253 252 253 253 251 250 250 251 253 253 256 262 267 266 260 252 258
244 244 246 249 250 248 249 252 254 254 254 254 254 256 257 257 258 258 257 257 256 255 259 266 270 272 271 272 273 271 269 268 266 265 265 264 263 262 261 259 258 258 258 257 258 257 257 256 256 256 257 258 258 258 256 251 250 251 251 253 252 251 250 249 249 249 249 253 259 263 263 255 252 262
244 245 247 250 250 248 249 252 253 253 253 253 253 254 256 257 258 258 258 257 256 255 257 262 267 269 269 269 271 271 270 269 268 266 264 263 260 259 258 257 256 256 256 257 258 258 257 256 256 255 256 256 257 257 254 249 249 250 250 251 251 251 250 248 248 246 246 250 256 260 261 256 255 265
244 246 248 250 250 249 250 253 254 254 252 252 254 255 256 257 256 257 258 258 257 256 257 260 264 267 269 269 270 271 270 269 268 265 262 260 258 255 254 254 254 254 254 256 258 259 258 257 256 255 255 256 257 256 251 248 249 249 248 248 249 250 249 247 246 244 243 247 253 258 260 257 256 263
245 246 248 250 250 251 252 254 255 256 254 253 255 258 258 257 256 255 257 257 257 257 257 259 262 265 267 269 270 271 267 261 261 260 256 256 258 255 253 255 255 253 253 255 257 259 258 257 255 253 253 253 254 253 249 247 248 248 246 246 247 247 247 246 243 243 243 245 251 256 257 256 257 261
246 247 249 250 251 253 254 256 258 259 258 256 256 259 260 258 256 255 255 255 255 256 257 260 263 265 266 266 267 267 262 257 259 261 257 256 259 259 257 258 257 254 253 255 256 257 257 257 255 253 251 251 251 250 247 245 245 246 244 243 244 245 244 242 241 242 243 244 248 254 256 255 256 259
247 248 249 251 253 255 257 259 260 261 261 259 258 260 259 257 256 253 252 252 252 253 255 258 260 261 262 262 262 262 264 263 263 261 256 255 260 261 260 262 261 257 253 252 253 255 256 255 254 252 251 251 250 249 247 244 242 244 243 241 242 243 241 239 239 241 242 243 247 252 254 254 252 255
247 248 250 252 254 255 257 259 260 262 262 262 261 262 261 259 257 254 252 252 251 250 251 256 258 257 259 263 262 261 265 266 262 259 256 254 256 254 251 258 263 261 255 248 247 252 254 253 251 251 252 252 249 248 247 245 241 242 243 242 241 242 240 237 237 239 240 241 246 252 251 248 246 252
247 248 250 252 253 254 256 258 260 261 262 263 263 263 263 262 260 258 256 254 253 251 251 254 256 255 258 263 263 261 263 264 262 259 255 251 250 247 243 245 255 260 258 248 243 249 254 252 248 249 251 251 249 248 248 246 242 240 241 242 241 241 239 236 236 237 237 239 245 250 247 241 242 251
246 248 249 251 252 254 255 257 258 259 262 264 264 264 265 263 262 262 260 258 257 256 254 255 257 257 258 261 264 264 263 262 260 257 253 250 248 243 242 245 251 256 257 247 242 249 254 251 245 247 251 250 249 249 248 246 243 241 240 240 240 240 238 234 234 234 235 237 242 244 239 236 240 247
246 248 248 249 252 254 254 255 256 257 259 262 263 264 264 264 264 264 262 260 259 258 256 255 258 260 259 259 264 267 264 259 257 255 253 253 251 247 250 254 256 255 254 249 243 249 256 251 241 245 250 249 247 249 248 246 244 241 239 237 237 238 236 232 231 232 232 233 236 236 233 232 235 238
248 249 249 249 252 255 255 255 256 256 258 260 261 262 262 263 265 265 264 263 264 262 260 259 261 263 263 262 264 266 263 260 260 259 258 259 259 258 259 260 257 251 250 249 241 244 253 249 239 243 250 248 247 249 248 245 243 240 238 236 234 235 233 230 229 230 229 228 228 228 228 228 229 231
249 250 250 250 252 255 256 257 258 258 259 259 260 261 262 263 264 264 265 266 267 267 265 264 265 267 268 267 267 266 264 261 262 262 262 260 259 257 257 258 254 245 244 245 240 240 251 248 237 240 247 246 245 246 246 244 243 239 236 234 234 233 231 229 228 226 224 223 222 223 225 224 223 224
250 251 251 251 252 254 256 258 259 260 260 258 258 260 262 263 263 263 265 267 267 267 267 267 268 270 271 271 270 269 267 264 262 260 258 258 252 244 246 254 250 241 243 246 243 241 251 252 243 241 245 244 243 244 246 246 244 240 236 233 232 231 229 227 226 223 220 218 218 221 222 221 217 215
250 252 253 253 253 254 257 259 260 261 260 258 258 259 261 263 264 265 267 268 269 269 269 269 269 270 271 271 270 270 269 268 263 256 253 257 254 241 238 245 248 247 249 249 244 239 247 252 249 248 250 246 242 243 246 247 243 240 237 232 230 229 227 225 223 220 217 216 216 218 220 217 213 210
251 252 253 254 254 255 258 259 261 261 260 259 259 259 261 263 267 270 271 270 271 271 270 269 269 270 271 270 269 269 270 269 265 258 254 256 256 249 244 242 243 248 253 250 241 233 241 244 239 238 237 233 240 241 241 243 241 238 235 231 228 226 224 223 222 218 215 215 214 215 217 215 210 210
251 252 253 254 255 257 259 260 261 262 261 261 261 260 259 263 270 274 275 274 274 273 272 272 272 273 275 274 272 270 270 269 266 261 257 255 253 251 248 244 238 239 253 253 239 228 236 237 230 230 226 220 234 234 231 233 235 233 232 229 225 223 220 219 219 216 214 215 214 213 215 214 211 212
249 251 253 255 257 259 261 262 263 264 264 264 264 263 262 265 270 274 275 275 276 275 275 275 274 275 277 278 277 275 273 270 268 264 260 257 254 251 248 246 241 241 251 255 244 232 236 233 226 225 221 221 231 229 222 227 229 228 228 226 223 221 217 214 214 213 212 214 214 213 214 214 213 214
247 250 253 255 258 261 262 264 265 266 267 267 267 268 269 271 273 274 276 277 278 278 279 279 278 277 277 278 279 278 277 277 276 272 267 263 258 254 251 248 244 243 250 254 249 241 239 236 228 220 212 217 226 220 209 218 225 224 223 220 219 219 215 212 211 211 211 212 212 212 213 216 216 214
248 251 253 255 258 260 262 264 266 269 270 271 272 273 275 277 279 281 283 284 285 286 285 284 281 279 279 279 279 281 282 283 283 282 279 274 268 263 258 254 250 249 251 254 251 245 242 239 234 224 216 218 221 211 203 210 217 215 213 214 216 215 213 211 210 210 211 211 210 210 212 217 218 217
248 250 252 253 256 258 261 264 267 269 270 271 274 276 279 282 285 288 290 292 294 294 291 287 284 283 283 282 281 282 284 286 287 286 284 282 277 272 268 262 256 253 252 251 249 246 242 240 236 231 225 223 220 208 201 204 207 205 205 208 210 209 208 209 209 211 212 210 207 208 212 216 217 217
246 247 249 250 252 255 258 261 265 268 270 272 275 278 282 286 289 293 297 300 301 297 290 287 285 285 286 285 284 286 287 287 287 286 284 283 281 277 273 268 263 258 253 250 247 244 243 241 238 234 230 226 222 212 203 203 205 202 199 198 199 202 205 206 207 209 208 206 205 207 212 215 215 216
243 244 245 248 252 257 261 265 267 269 272 275 279 282 287 292 297 304 308 308 305 297 291 291 290 289 291 291 289 290 290 288 287 286 285 286 284 282 278 274 269 263 258 253 248 245 243 241 239 236 231 227 222 213 208 207 204 199 197 193 188 191 199 202 202 203 201 200 202 207 212 215 214 216
242 245 249 254 258 261 262 263 265 269 275 283 288 294 303 311 319 327 329 323 314 305 299 298 296 296 298 298 296 296 296 293 292 291 290 289 288 286 284 279 274 269 264 258 253 248 244 241 238 235 230 226 219 212 210 208 200 193 194 192 186 184 190 193 193 195 195 194 198 206 212 215 215 218
239 241 243 242 241 241 242 247 260 275 285 297 309 319 331 338 341 344 342 333 324 317 311 306 302 302 303 301 300 299 296 293 294 294 292 288 286 286 285 279 274 273 270 263 256 250 245 241 237 233 228 225 219 213 210 210 204 194 188 189 188 184 182 184 183 185 187 187 194 205 213 215 213 210
205 196 194 194 200 215 238 262 285 299 310 326 337 343 347 348 349 349 346 339 333 328 322 313 308 307 307 304 303 301 296 294 295 295 292 288 285 284 281 276 274 274 273 269 262 254 248 243 240 236 231 228 223 216 209 204 199 192 185 182 179 172 172 178 180 180 180 183 192 202 206 206 205 203
171 168 166 168 183 218 273 311 331 348 355 355 352 351 351 352 352 350 345 340 334 328 324 318 314 312 310 307 306 304 301 299 300 299 295 291 288 285 279 275 274 272 272 272 268 261 253 247 243 241 236 230 225 219 210 200 190 185 181 176 169 163 166 174 177 177 179 183 188 191 192 194 198 200
156 155 150 137 125 117 74 35 20 18 13 5 359 355 351 351 350 344 337 335 332 328 324 322 319 315 311 309 309 308 305 304 303 303 302 298 292 285 278 274 272 269 268 270 269 265 258 248 239 231 223 213 206 208 209 199 184 173 166 164 163 159 161 168 173 174 177 180 182 184 186 190 194 194
139 137 136 124 105 84 66 47 30 19 10 2 356 349 342 340 339 335 332 333 333 330 328 325 321 318 316 315 316 314 312 310 308 308 308 305 298 289 279 273 271 271 270 270 270 268 264 253 236 212 173 150 163 161 181 183 178 172 161 154 154 155 156 162 169 171 172 176 182 187 190 189 189 191
127 123 121 108 89 68 53 34 17 9 360 351 345 339 331 328 328 331 335 338 338 336 333 327 321 320 323 325 325 321 318 318 318 315 314 312 307 300 290 280 278 277 273 271 272 270 265 255 234 206 184 164 155 127 90 127 156 165 159 147 142 147 152 156 161 165 169 176 185 194 197 194 190 190
118 110 98 85 71 58 44 23 4 356 350 342 336 332 326 323 326 334 341 344 343 339 334 328 326 328 332 332 329 325 324 327 326 322 322 322 317 309 302 293 286 281 276 275 276 271 260 248 224 203 194 180 156 145 120 108 118 141 151 146 141 144 153 156 156 160 167 177 188 195 195 191 189 189
107 99 84 70 56 44 33 17 360 349 344 340 335 329 326 328 334 340 344 344 341 336 331 330 333 336 337 336 335 332 331 332 330 327 329 333 331 323 316 311 306 306 308 310 306 279 249 230 207 184 152 102 118 130 124 115 114 128 145 150 148 151 158 159 156 160 169 178 184 186 184 182 184 187
95 91 77 65 53 35 19 9 2 355 349 344 338 335 335 337 340 343 343 342 340 337 335 337 341 341 340 341 344 344 341 339 338 337 339 343 346 348 351 360 20 33 30 26 37 63 92 125 139 124 104 97 107 116 117 116 119 129 140 150 154 156 160 160 160 166 173 178 180 180 178 177 179 181
84 75 65 57 44 25 13 8 4 360 356 351 348 348 347 345 345 345 342 341 343 343 341 342 344 344 344 349 354 354 351 350 350 350 353 357 1 6 14 23 38 53 57 51 52 66 88 106 115 118 118 120 124 125 122 120 125 135 142 149 152 153 157 164 169 172 174 177 180 179 176 178 181 185
72 63 55 45 30 15 9 7 4 1 2 1 358 355 351 348 347 346 344 345 348 347 343 342 345 347 348 354 359 360 0 1 1 3 10 16 17 20 25 29 33 43 52 56 57 65 83 101 108 111 114 116 116 114 111 113 121 129 138 144 147 148 155 168 179 180 178 178 178 177 175 174 177 186
65 54 45 36 23 10 4 3 5 9 11 9 4 358 353 349 348 346 344 345 348 347 342 341 346 352 353 352 355 2 10 13 14 18 28 35 35 34 36 39 42 47 54 60 65 73 81 89 99 105 105 101 102 103 106 114 121 127 137 145 148 150 155 165 178 183 184 184 184 184 185 183 180 189
51 43 39 30 17 8 3 4 11 16 14 8 3 359 355 350 347 346 345 345 344 343 340 338 342 350 355 351 352 2 15 21 24 31 40 49 55 56 55 58 59 60 63 65 67 74 81 88 97 104 104 103 108 112 115 118 123 129 137 145 150 156 162 166 173 180 183 185 187 190 195 197 199 207
43 40 36 26 16 12 9 8 11 13 10 4 1 359 357 353 350 349 349 346 342 338 336 337 340 345 352 354 356 5 17 24 32 44 50 58 67 72 73 76 76 73 73 75 75 75 80 88 97 103 105 109 116 122 125 129 131 133 137 143 150 160 167 172 178 180 181 183 187 192 198 205 211 217